User: anonymous   Login
Location: Ab? ar R?sh Ba?r?
(24.1861°N, 32.8847°E)
Time: 04:03:54
(UTC+00:00)
Language:

DELTA 1 DEB - Orbit

View from above orbital plane
View from above orbital plane
View from above satellite
View from above satellite

Ground track
Ground track

The orbit data is extracted from the following two-line orbital elements,

1 37670U 78026KH  23024.60854893  .00000122  00000-0  13898-3 0  9997
2 37670  99.0754 305.4069 0070521 253.9860 105.3521 13.86907053481747
Epoch (UTC): 24 January 2023 14:36:18
Eccentricity: 0.0070521
inclination: 99.0754°
perigee height: 888 km
apogee height: 991 km
right ascension of ascending node: 305.4069°
argument of perigee: 253.9860°
revolutions per day: 13.86907053
mean anomaly at epoch: 105.3521°
orbit number at epoch: 48174

The dashed part of the orbit path shows where the satellite is in the earth's shadow,  

DLR